Regional Weather Roundup
Issued by NWS

Home | Current Version | Previous Version | Text Only | Print | Product List | Glossary On
Versions: 1 2 3 4 5 6 7 8 9 10 11 12 13 14 15 16 17 18 19 20 21 22 23 24 25 26 27 28 29 30 31 32 33 34 35 36 37 38 39 40 41 42 43 44 45 46 47 48 49 50
569
ASUS43 KTOP 230859
RWRKS

WEATHER ROUNDUP FOR KANSAS
NATIONAL WEATHER SERVICE GOODLAND KS
400 AM CDT TUE MAY 23 2017

NOTE:  "FAIR" INDICATES FEW OR NO CLOUDS BELOW 12,000 FEET WITH NO
SIGNIFICANT WEATHER AND/OR OBSTRUCTIONS TO VISIBILITY.

KSZ001>006-013>018-027>032-041>047-231000-
NORTHWEST KANSAS

CITY           SKY/WX    TMP DP  RH WIND       PRES   REMARKS
GOODLAND       CLEAR     41  39  93 NW10      30.13R
HAYS           CLOUDY    51  45  79 NW15      30.04R
HILL CITY      CLEAR     48  45  89 NW9       30.08R
RUSSELL        MOCLDY    48  45  89 NW14      30.00R
$$

KSZ061>065-074>080-084>089-231000-
SOUTHWEST KANSAS

CITY           SKY/WX    TMP DP  RH WIND       PRES   REMARKS
DODGE CITY     MOCLDY    50  46  86 N15       30.05S
ELKHART          N/A     48  37  65 MISG        N/A
GARDEN CITY    CLOUDY    48  44  86 N13       30.09S
GREAT BEND     MOCLDY    50  47  89 N13       30.01R
LIBERAL        LGT RAIN  50  48  93 NW14      30.11S
$$

KSZ066>073-081>083-090>101-231000-
SOUTHEAST KANSAS

CITY           SKY/WX    TMP DP  RH WIND       PRES   REMARKS
CHANUTE        MOCLDY    58  55  90 NW7       29.88S
COFFEYVILLE    CLOUDY    60  58  92 NW9       29.88S
HUTCHINSON     CLOUDY    54  50  86 N15G25    29.93S
MEDICINE LODGE   N/A     55  51  86 N20G26    29.94R
NEWTON         LGT RAIN  53  51  93 N21G30    29.90F
PARSONS        MOCLDY    58  56  93 NW7       29.89S
WICHITA INTL   CLEAR     56  55  97 N9        29.89F
WICHITA JABRA  CLOUDY    54  52  93 N12       29.89F
WICHITA MCCONL PTCLDY    56  54  93 NE12      29.89S
WINFIELD       MOCLDY    54  54 100 CALM      29.89F
$$

KSZ007>012-019>026-033>040-048>060-102>105-231000-
NORTHEAST KANSAS

CITY           SKY/WX    TMP DP  RH WIND       PRES   REMARKS
CONCORDIA      CLOUDY    52  51  97 N6        29.96F
EMPORIA        MOCLDY    56  54  93 NW13G22   29.89F
LAWRENCE       FOG       56  56 100 CALM      29.88F VSB 1/2
MANHATTAN      LGT RAIN  56  51  84 VRB5      29.92S
OLATHE IND     CLOUDY    55  55 100 S5        29.88S FOG
OLATHE EXE     CLOUDY    54  54 100 SW6       29.87S FOG
SALINA         CLOUDY    55  50  83 N12       29.94F
TOPEKA BILLARD PTCLDY    56  56 100 W8        29.89S
TOPEKA FORBES  PTCLDY    56  55  97 W7        29.89S
$$




USA.gov is the U.S. government's official web portal to all federal, state and local government web resources and services.